Regional Weather Roundup
Issued by NWS Green Bay, WI

Home | Current Version | Previous Version | Text Only | Print | Product List | Glossary On
Versions: 1 2 3 4 5 6 7 8 9 10 11 12 13 14 15 16 17 18 19 20 21 22 23 24 25 26 27 28 29 30 31 32 33 34 35 36 37 38 39 40 41 42 43 44 45 46 47 48 49 50
000
ASUS43 KGRB 020510
RWRGRB

NORTH-CENTRAL AND NORTHEAST WISCONSIN REGIONAL WEATHER ROUNDUP
NATIONAL WEATHER SERVICE GREEN BAY WI
1100 PM CST SUN MAR 01 2015

WIZ005-009-010>012-018-019-020600-
NORTH CENTRAL WISCONSIN

CITY           SKY/WX    TMP DP  RH WIND       PRES   REMARKS
IRONWOOD       CLOUDY    19  10  68 NW17      30.16R WCI   4
MANITOWISH WTR CLOUDY    17   7  65 W12G17    30.14S WCI   4
ARBOR VITAE    MOCLDY    17   6  64 W6        30.14S WCI   8
EAGLE RIVER    MOCLDY    17   5  59 W13       30.12S WCI   4
LAND O LAKES   FLURRIES  17   8  65 W6        30.12S WCI   9
RHINELANDER    CLEAR     13   3  64 W13       30.15R WCI  -2
PHILLIPS       CLEAR     15   6  68 W5        30.18S WCI   7
ANTIGO         CLEAR     14   4  66 W12G18    30.17R WCI   0
TOMAHAWK       CLEAR     15   6  67 W9        30.18S WCI   3
MERRILL        CLEAR     13   5  68 W7        30.20R WCI   3
$$

WIZ013-073-020600-
NORTHEAST WISCONSIN

CITY           SKY/WX    TMP DP  RH WIND       PRES   REMARKS
IRON MOUNTAIN  PTCLDY    16   3  56 W12       30.12R WCI   3
MARINETTE      CLEAR     18   7  62 W8        30.18R WCI   7
OCONTO         CLEAR     17   6  63 W9        30.21R WCI   5
$$

WIZ017-030-035>037-045-020600-
CENTRAL WISCONSIN

CITY           SKY/WX    TMP DP  RH WIND       PRES   REMARKS
MEDFORD        CLEAR     13   6  72 W6        30.20S WCI   4
WAUSAU         CLEAR     16   5  62 NW9       30.20S WCI   4
MOSINEE        MOCLDY    16   9  73 W9        30.23R WCI   4
MARSHFIELD     PTCLDY    14   6  70 W7        30.24R WCI   4
WISC RAPIDS    PTCLDY    16   5  62 W6        30.27R WCI   7
STEVENS POINT  CLEAR     14   6  68 W5        30.25R WCI   7
WAUPACA        CLEAR     20   8  59 W9        30.25S WCI  10
SHAWANO        CLEAR     19   7  59 W5        30.23R
CLINTONVILLE   CLEAR     18   7  62 W7        30.23S WCI   8
$$

WIZ038-039-048-051-020600-
FOX VALLEY

CITY           SKY/WX    TMP DP  RH WIND       PRES   REMARKS
NWS GREEN BAY  CLEAR     18   8  65 W9        30.24R WCI   7
APPLETON       CLEAR     18   7  62 W10       30.24R WCI   6
OSHKOSH        CLEAR     18   6  59 W7        30.26R WCI   9
FOND DU LAC    CLEAR     18   6  59 W7        30.27R WCI   9
$$

WIZ022-050-052-020600-
EAST CENTRAL WISCONSIN

CITY           SKY/WX    TMP DP  RH WIND       PRES   REMARKS
STURGEON BAY     N/A     18   7  62 W15       30.21R WCI   3
MANITOWOC        N/A     19   9  65 W12       30.24R WCI   7
SHEBOYGAN      CLEAR     19   6  57 W15       30.25R WCI   5
$$

LMZ563-521-522-541>543-020600-
LAKESHORE

STATION/POSITION TIME  TEMP    WIND        PRES    VSBY  WAVE
                       AIR SEA DIR/SP/G                  HT/PER
                 (UTC) (F)     (DEG/KT/KT) (MB)    (MI)  (FT/S)
SHEBOYGAN LKSHOR 0500   22     270/ 10/ 13 1026.0R
KEWAUNEE LKSHORE 0500   20     280/ 11/ 16 1022.1S
NORTHPORT PIER   0500   20     280/  7/ 15 1021.7R
SISTER BAY LKSHO 0400   19     260/ 15/ 17   N/A
CHAMBERS ISLAND  0500   19     230/  8/ 17 1022.0S
MENOMINEE LKSHOR 0500   19     250/  9     1022.8R
$$



USA.gov is the U.S. government's official web portal to all federal, state and local government web resources and services.